Tracking 19193 objects as of 24-Jun-2018
HD Live streaming from Space Station
objects crossing your sky now

TRANSIT 13 DEB

Track TRANSIT 13 DEB now!
10-day predictions


NORAD ID: 42667
Int'l Code: 1966-041J
Perigee: 755.3 km
Apogee: 818.8 km
Inclination: 90.1 °
Period: 100.5 minutes
Semi major axis: 7158 km
RCS: Unknown
Launch date: May 19, 1966
Source: United States (US)
Launch site: AIR FORCE WESTERN TEST RANGE (AFWTR)

Note: This is SATELLITE DEBRIS
aabbcc
Your satellite tracking list
Your tracking list is empty




NASA's NSSDC Master Catalog

Two Line Element Set (TLE):
1 42667U 66041J   18174.01906989  .00006831  00000-0  24385-2 0  9997
2 42667  90.1388  22.3491 0044343 196.9097 163.0626 14.33542603188446
Source of the keplerian elements: AFSPC